Location: Guferjoch
(46.7462°N, 8.4506°E)
Time: 23:56:07
(UTC+00:00)

Cosmos 2242 Rocket - Pass Details

Date: 14 July 2020
Orbit: 618 x 652 km, 82.5° (Epoch: 14 August)

Event Time Altitude Azimuth Distance (km) Brightness Sun altitude
Rises 00:03:06 0° 355° (N) 2,980 8.5 -21.3°
Reaches altitude 10° 00:05:26 10° 0° (N) 2,062 7.4 -21.2°
Maximum altitude 00:09:54 51° 77° (ENE) 810 4.2 -21.1°
Enters shadow 00:11:26 35° 131° (SE) 1,034 4.4 -21.0°
